• In Belarus
  • List of Countries
  • For 7 days
  • Water Temperature
  • Satellite Maps
  • Weather Map
  • Weather Widgets
  • user-avatar
    Login

    Hourly Weather Laksau

    Today, 16 December, Sunday

    Time Temperature Precipitation Wind Pressure Humidity
    00:00 +15°C° 0 mm 1 mps 707 mmHg 90%
    01:00 +15°C° 0 mm 1 mps 707 mmHg 91%
    02:00 +15°C° 0 mm 1 mps 707 mmHg 91%
    03:00 +15°C° 0 mm 1 mps 707 mmHg 91%
    04:00 +15°C° 0 mm 1 mps 707 mmHg 91%
    05:00 +15°C° 0 mm 1 mps 707 mmHg 91%
    06:00 +15°C° 0 mm 1 mps 707 mmHg 91%
    07:00 +16°C° 0 mm 1 mps 708 mmHg 88%
    08:00 +17°C° 0 mm 2 mps 708 mmHg 82%
    09:00 +19°C° 0 mm 2 mps 708 mmHg 76%
    10:00 +20°C° 0 mm 2 mps 709 mmHg 70%
    11:00 +21°C° 0 mm 2 mps 708 mmHg 68%
    12:00 +21°C° 0 mm 2 mps 708 mmHg 66%
    13:00 +23°C° 0 mm 2 mps 708 mmHg 63%
    14:00 +21°C° 0 mm 2 mps 707 mmHg 66%
    15:00 +21°C° 0 mm 2 mps 707 mmHg 68%
    16:00 +20°C° 0 mm 2 mps 707 mmHg 71%
    17:00 +18°C° 0 mm 2 mps 707 mmHg 76%
    18:00 +17°C° 0 mm 2 mps 707 mmHg 80%
    19:00 +15°C° 0 mm 1 mps 707 mmHg 82%
    20:00 +14°C° 0 mm 1 mps 707 mmHg 84%
    21:00 +14°C° 0 mm 1 mps 707 mmHg 85%
    22:00 +13°C° 0 mm 1 mps 707 mmHg 87%
    23:00 +13°C° 0 mm 1 mps 707 mmHg 87%

    Tomorrow, 17 December, Monday

    Time Temperature Precipitation Wind Pressure Humidity
    00:00 +13°C° 0 mm 1 mps 707 mmHg 87%
    01:00 +12°C° 0 mm 1 mps 707 mmHg 86%
    02:00 +12°C° 0 mm 1 mps 707 mmHg 85%
    03:00 +12°C° 0 mm 1 mps 706 mmHg 85%
    04:00 +12°C° 0 mm 1 mps 706 mmHg 84%
    05:00 +12°C° 0 mm 1 mps 706 mmHg 82%
    06:00 +12°C° 0 mm 1 mps 707 mmHg 81%
    07:00 +12°C° 0 mm 1 mps 707 mmHg 80%
    08:00 +15°C° 0 mm 2 mps 708 mmHg 70%
    09:00 +17°C° 0 mm 2 mps 708 mmHg 60%
    10:00 +20°C° 0 mm 2 mps 709 mmHg 51%
    11:00 +21°C° 0 mm 2 mps 708 mmHg 49%
    12:00 +23°C° 0 mm 2 mps 708 mmHg 48%
    13:00 +25°C° 0 mm 2 mps 708 mmHg 46%
    14:00 +24°C° 0 mm 2 mps 707 mmHg 49%
    15:00 +23°C° 0 mm 2 mps 707 mmHg 53%
    16:00 +23°C° 0 mm 2 mps 706 mmHg 56%
    17:00 +20°C° 0 mm 2 mps 706 mmHg 65%
    18:00 +17°C° 0 mm 2 mps 706 mmHg 74%
    19:00 +15°C° 0 mm 1 mps 706 mmHg 82%
    20:00 +15°C° 0 mm 1 mps 706 mmHg 84%
    21:00 +14°C° 0 mm 1 mps 707 mmHg 86%
    22:00 +14°C° 0 mm 1 mps 707 mmHg 88%
    23:00 +13°C° 0 mm 1 mps 707 mmHg 89%

    Day after tomorrow, 18 December, Tuesday

    Time Temperature Precipitation Wind Pressure Humidity
    00:00 +13°C° 0 mm 1 mps 707 mmHg 89%
    01:00 +13°C° 0 mm 1 mps 707 mmHg 90%
    02:00 +13°C° 0 mm 1 mps 706 mmHg 90%
    03:00 +13°C° 0 mm 1 mps 706 mmHg 90%
    04:00 +13°C° 0 mm 1 mps 706 mmHg 91%
    05:00 +13°C° 0 mm 1 mps 706 mmHg 90%
    06:00 +13°C° 0 mm 1 mps 706 mmHg 90%
    07:00 +13°C° 0 mm 1 mps 706 mmHg 89%
    08:00 +16°C° 0 mm 1 mps 707 mmHg 79%
    09:00 +20°C° 0 mm 1 mps 707 mmHg 69%
    10:00 +23°C° 0 mm 1 mps 708 mmHg 59%
    11:00 +24°C° 0 mm 1 mps 707 mmHg 56%
    12:00 +25°C° 0 mm 1 mps 707 mmHg 54%
    13:00 +26°C° 0 mm 1 mps 706 mmHg 52%
    14:00 +25°C° 0 mm 1 mps 706 mmHg 55%
    15:00 +25°C° 0 mm 1 mps 705 mmHg 58%
    16:00 +24°C° 0 mm 1 mps 704 mmHg 61%
    17:00 +22°C° 0 mm 1 mps 705 mmHg 70%
    18:00 +20°C° 0 mm 1 mps 705 mmHg 78%
    19:00 +18°C° 0 mm 1 mps 705 mmHg 86%
    20:00 +18°C° 0 mm 1 mps 705 mmHg 89%
    21:00 +16°C° 0 mm 1 mps 706 mmHg 91%
    22:00 +16°C° 0 mm 1 mps 706 mmHg 93%
    23:00 +15°C° 0 mm 1 mps 706 mmHg 94%

    19 December, Wednesday

    Time Temperature Precipitation Wind Pressure Humidity
    00:00 +15°C° 0 mm 1 mps 705 mmHg 94%
    01:00 +15°C° 0 mm 1 mps 705 mmHg 95%
    02:00 +15°C° 0 mm 1 mps 705 mmHg 95%
    03:00 +15°C° 0 mm 1 mps 705 mmHg 96%
    04:00 +15°C° 0 mm 1 mps 704 mmHg 96%
    05:00 +15°C° 0 mm 1 mps 705 mmHg 96%
    06:00 +15°C° 0 mm 1 mps 705 mmHg 95%
    07:00 +15°C° 0 mm 1 mps 705 mmHg 95%
    08:00 +20°C° 0 mm 1 mps 706 mmHg 83%
    09:00 +23°C° 0 mm 1 mps 706 mmHg 71%
    10:00 +26°C° 0 mm 1 mps 707 mmHg 59%
    11:00 +27°C° 0 mm 1 mps 707 mmHg 55%
    12:00 +29°C° 0 mm 1 mps 706 mmHg 51%
    13:00 +30°C° 0 mm 1 mps 705 mmHg 47%
    14:00 +29°C° 0 mm 1 mps 705 mmHg 50%
    15:00 +28°C° 0 mm 1 mps 704 mmHg 52%
    16:00 +28°C° 0 mm 1 mps 703 mmHg 55%
    17:00 +26°C° 0 mm 1 mps 703 mmHg 65%
    18:00 +23°C° 0 mm 1 mps 703 mmHg 75%
    19:00 +21°C° 0 mm 1 mps 704 mmHg 85%
    20:00 +21°C° 0 mm 1 mps 704 mmHg 87%
    21:00 +20°C° 0 mm 1 mps 704 mmHg 90%
    22:00 +18°C° 0 mm 0 mps 704 mmHg 92%
    23:00 +18°C° 0 mm 0 mps 704 mmHg 93%

    20 December, Thursday

    Time Temperature Precipitation Wind Pressure Humidity
    00:00 +17°C° 0 mm 0 mps 704 mmHg 94%
    01:00 +17°C° 0 mm 0 mps 703 mmHg 95%
    02:00 +17°C° 0 mm 0 mps 703 mmHg 95%
    03:00 +17°C° 0 mm 0 mps 703 mmHg 95%
    04:00 +16°C° 0 mm 0 mps 703 mmHg 94%
    05:00 +17°C° 0 mm 0 mps 703 mmHg 93%
    06:00 +17°C° 0 mm 0 mps 703 mmHg 91%
    07:00 +17°C° 0 mm 0 mps 704 mmHg 89%
    08:00 +20°C° 0 mm 0 mps 704 mmHg 77%
    09:00 +25°C° 0 mm 1 mps 705 mmHg 65%
    10:00 +29°C° 0 mm 1 mps 705 mmHg 53%
    11:00 +30°C° 0 mm 1 mps 705 mmHg 48%
    12:00 +31°C° 0 mm 1 mps 704 mmHg 44%
    13:00 +32°C° 0 mm 1 mps 703 mmHg 40%
    14:00 +31°C° 0 mm 1 mps 702 mmHg 43%
    15:00 +30°C° 0 mm 1 mps 702 mmHg 46%
    16:00 +30°C° 0 mm 1 mps 701 mmHg 48%
    17:00 +27°C° 0 mm 1 mps 701 mmHg 57%
    18:00 +25°C° 0 mm 1 mps 701 mmHg 66%
    19:00 +20°C° 0 mm 0 mps 701 mmHg 75%
    20:00 +20°C° 0 mm 0 mps 702 mmHg 74%
    21:00 +20°C° 0 mm 0 mps 702 mmHg 74%
    22:00 +19°C° 0 mm 0 mps 702 mmHg 73%
    23:00 +19°C° 0 mm 0 mps 702 mmHg 73%

    21 December, Friday

    Time Temperature Precipitation Wind Pressure Humidity
    00:00 +19°C° 0 mm 0 mps 702 mmHg 72%
    01:00 +19°C° 0 mm 0 mps 702 mmHg 71%
    02:00 +21°C° 0 mm 1 mps 701 mmHg 72%
    03:00 +20°C° 0 mm 1 mps 701 mmHg 72%
    04:00 +20°C° 0 mm 1 mps 701 mmHg 72%
    05:00 +20°C° 0 mm 1 mps 701 mmHg 73%
    06:00 +20°C° 0 mm 1 mps 702 mmHg 74%
    07:00 +20°C° 0 mm 1 mps 702 mmHg 75%
    08:00 +24°C° 0 mm 1 mps 703 mmHg 66%
    09:00 +27°C° 0 mm 1 mps 703 mmHg 57%
    10:00 +30°C° 0 mm 1 mps 704 mmHg 48%
    11:00 +31°C° 0 mm 1 mps 703 mmHg 46%
    12:00 +32°C° 0 mm 1 mps 703 mmHg 43%
    13:00 +33°C° 0 mm 1 mps 702 mmHg 41%
    14:00 +32°C° 0 mm 1 mps 702 mmHg 44%
    15:00 +31°C° 0 mm 1 mps 701 mmHg 47%
    16:00 +31°C° 0 mm 1 mps 701 mmHg 50%
    17:00 +28°C° 0 mm 1 mps 701 mmHg 60%
    18:00 +26°C° 0 mm 1 mps 701 mmHg 71%
    19:00 +21°C° 0 mm 0 mps 701 mmHg 81%
    20:00 +21°C° 0 mm 0 mps 702 mmHg 83%
    21:00 +21°C° 0 mm 0 mps 702 mmHg 86%
    22:00 +21°C° 0 mm 0 mps 702 mmHg 88%
    23:00 +22°C° 0 mm 1 mps 702 mmHg 90%
    Show more